Location: *
(43.9900°N, 3.4811°E)
Time: 01:11:21
(UTC+00:00)

COSMOS 2406 - Pass Details

Date: 25 August 2019
Orbit: 842 x 865 km, 71.0° (Epoch: 19 September)

Event Time Altitude Azimuth Distance (km) Brightness Sun altitude
Rises 20:12:51 0° 219° (SW) 3,395 6.4 -16.8°
Reaches altitude 10° 20:15:21 10° 224° (SW) 2,466 5.7 -17.2°
Maximum altitude 20:20:52 52° 300° (WNW) 1,056 4.1 -18.0°
Drops below altitude 10° 20:26:27 10° 17° (NNE) 2,495 5.9 -18.8°
Sets 20:29:00 0° 22° (NNE) 3,439 6.6 -19.2°
